User: anonymous   Login
Location: Montr�al
(45.5000°N, 73.5830°W)
Time: 10:39:07
(UTC-04:00)
Language:

Cosmos 2369 - Orbit

View from above orbital plane
View from above orbital plane
View from above satellite
View from above satellite

Ground track
Ground track

The orbit data is extracted from the following two-line orbital elements,

1 26069U 00006A   16208.86839319 -.00000093 +00000-0 -24398-4 0  9997
2 26069 070.9944 320.5600 0010855 353.1057 006.9913 14.13320700113506
Epoch (UTC): 26 July 2016 20:50:29
Eccentricity: 0.0010855
inclination: 70.9944°
perigee height: 840 km
apogee height: 856 km
right ascension of ascending node: 320.5600°
argument of perigee: 353.1057°
revolutions per day: 14.13320700
mean anomaly at epoch: 6.9913°
orbit number at epoch: 11350

The dashed part of the orbit path shows where the satellite is in the earth's shadow,  

DLR